Wind_Speed
86 85 85 84 84 84 83 83 82 81 80 80 79 79 79 79 79 80 80 81 82 83 83 82 82 81 81 80 80 80 80 80 81 82 83 83 83 82 82 82 83 84 86 88 88 89 90 92 93 93 94 95 96 98 100 101 102 103 104 106 106 107
89 88 88 87 86 86 85 85 85 84 83 83 82 82 82 82 82 83 83 84 84 85 85 85 85 84 83 83 83 82 82 82 83 84 84 84 84 84 84 85 85 87 88 89 89 90 92 94 95 96 97 98 99 101 102 104 105 106 107 108 109 109
91 91 91 90 90 89 88 87 87 86 86 85 85 84 84 85 85 85 85 85 85 86 87 87 87 87 86 85 85 84 84 84 85 86 87 87 86 86 86 87 88 88 89 90 91 93 95 97 98 99 100 101 102 103 105 106 108 109 109 110 111 111
92 92 93 93 93 92 91 90 89 88 88 87 87 87 87 88 88 87 87 87 87 87 88 89 89 88 88 87 86 86 86 87 87 88 89 89 88 88 89 90 91 91 92 93 94 96 98 99 101 102 103 104 104 106 107 108 110 111 111 112 112 112
92 93 94 95 95 95 94 93 92 92 91 90 90 90 90 90 90 90 90 89 89 90 90 91 91 91 90 89 88 88 88 88 89 90 91 91 91 92 93 94 95 96 97 97 98 99 101 102 103 104 105 106 107 108 109 110 111 112 112 113 113 112
91 93 94 95 96 96 96 96 96 95 95 94 93 93 93 92 92 92 92 92 92 93 93 93 93 93 92 91 91 91 91 91 91 91 92 93 94 95 96 97 99 100 100 101 101 103 104 104 105 105 106 108 109 110 111 112 112 113 113 113 113 113
91 92 93 95 96 97 97 97 98 98 98 97 97 96 96 95 95 95 95 95 95 95 96 95 95 95 95 95 95 94 94 93 93 93 94 95 97 98 99 100 101 102 102 103 104 105 105 106 106 107 108 109 110 111 112 113 113 113 113 113 114 114
94 93 93 94 96 98 99 99 99 100 100 100 99 99 98 98 98 97 97 97 97 97 98 98 98 98 98 97 97 96 96 95 95 96 97 99 100 101 102 103 104 104 105 106 106 106 107 107 108 109 110 111 112 112 112 112 112 113 114 115 115 116
97 96 95 94 95 97 99 100 101 101 102 102 101 101 100 100 99 99 99 99 99 100 100 100 100 99 98 98 97 97 98 98 98 99 100 102 103 104 105 105 106 107 107 107 108 108 109 110 110 111 112 112 112 112 112 112 113 115 115 116 116 118
99 99 98 97 96 97 99 101 102 102 103 103 103 102 102 101 101 101 101 101 101 101 102 101 101 100 100 99 100 100 100 101 102 102 103 104 105 106 107 107 108 108 109 109 110 110 111 112 112 112 112 112 111 111 112 113 114 115 115 117 119 121
100 100 99 99 98 97 98 100 102 103 104 104 104 104 104 104 104 103 103 103 103 103 103 103 102 102 102 102 102 102 103 104 105 105 105 106 107 108 108 109 109 110 110 111 111 112 112 112 112 112 111 111 111 112 113 114 115 116 117 119 121 124
102 101 100 100 100 99 98 99 100 102 104 105 106 106 106 107 107 107 106 106 105 105 105 104 104 104 104 104 104 105 105 106 106 107 107 108 108 109 109 110 110 110 111 111 111 111 111 111 111 111 111 112 112 113 114 115 116 118 120 122 124 126
104 103 102 101 101 100 100 100 99 100 102 105 107 108 108 109 109 110 110 110 109 109 108 107 107 106 106 106 106 107 107 107 108 108 108 108 109 109 110 110 110 111 111 111 111 111 110 111 111 111 112 113 114 115 116 118 120 122 123 125 126 127
106 106 105 104 103 102 101 101 101 101 101 103 105 108 110 111 111 112 112 113 113 112 112 111 110 110 109 109 109 109 109 109 109 109 109 109 109 110 110 110 111 111 111 111 111 110 111 111 112 112 114 115 117 119 120 122 123 124 125 126 126 127
108 109 108 108 106 105 103 102 102 102 102 102 103 105 108 110 112 113 114 114 115 115 114 114 113 112 112 112 111 111 111 111 110 110 110 110 110 110 111 111 111 110 110 110 111 111 111 112 113 115 117 119 121 122 124 125 125 126 126 127 128 129
110 110 110 110 109 107 106 104 103 103 103 103 103 104 106 108 110 113 115 116 116 116 116 116 115 115 114 114 114 114 113 113 112 112 112 112 112 112 112 112 111 111 111 111 112 112 113 115 117 119 121 122 124 125 126 126 127 127 127 128 129 131
111 110 110 110 110 110 108 107 105 104 103 103 103 104 105 107 109 111 114 116 117 117 118 117 117 117 117 116 116 116 115 115 114 114 114 114 114 114 114 114 114 114 114 114 114 115 116 118 120 121 123 124 125 126 127 127 127 127 128 130 132 135
111 110 110 110 110 111 110 109 108 106 106 105 104 104 105 107 109 111 113 115 117 118 118 118 119 119 119 118 118 117 117 116 116 116 116 116 116 116 116 116 116 116 116 116 117 118 119 120 122 123 125 126 126 127 127 127 128 129 131 134 137 139
111 110 110 110 111 111 111 110 110 108 107 106 105 105 106 106 108 111 113 115 116 117 118 119 119 119 119 118 118 118 117 117 117 117 117 117 117 117 117 117 117 117 118 119 120 121 122 123 124 125 126 127 127 128 128 129 131 133 135 137 139 140
109 109 109 110 111 112 112 111 111 110 108 107 107 106 106 107 109 111 112 113 115 116 117 118 119 119 118 118 117 117 117 117 117 117 118 118 118 119 119 120 120 121 121 122 123 124 125 125 126 127 127 128 129 130 131 133 134 136 137 138 139 140
105 106 107 108 110 111 112 111 111 110 109 109 108 108 108 109 111 112 112 113 114 116 117 118 119 120 120 120 119 119 119 119 119 120 120 121 121 122 122 123 123 123 124 125 125 126 127 127 128 129 129 130 131 132 133 134 136 137 138 138 139 139
101 102 103 105 107 108 109 110 110 110 109 109 110 110 111 113 113 113 113 114 115 116 117 119 120 121 122 122 122 122 122 122 122 122 123 123 123 124 124 124 125 125 126 127 127 128 129 129 130 131 132 132 133 134 134 135 136 137 137 137 137 137
97 99 100 102 103 104 106 107 108 108 109 109 110 111 113 114 115 116 116 116 116 116 117 118 120 121 122 123 124 124 125 125 125 125 125 125 125 125 125 126 127 127 128 128 129 130 131 131 132 133 133 133 134 134 134 135 135 135 135 135 136 136
93 94 96 98 99 101 102 104 105 106 107 108 109 111 112 114 116 117 118 118 118 117 117 118 119 120 121 122 123 123 124 125 125 125 125 126 126 127 127 128 128 129 129 130 130 131 131 132 132 132 132 132 132 132 133 133 133 134 134 134 134 134
89 90 92 93 95 96 97 99 100 102 104 106 107 109 110 111 113 115 117 119 120 120 119 119 119 120 120 121 121 122 122 123 124 124 125 126 126 127 127 128 128 128 128 128 129 129 129 130 130 130 130 130 130 131 131 132 132 132 133 132 133 132
85 86 87 89 91 92 93 94 95 97 99 101 103 105 107 108 110 111 113 115 117 119 120 120 119 119 119 120 120 121 121 122 122 122 123 123 124 124 125 125 125 125 126 126 126 126 127 128 128 129 129 129 129 129 130 130 131 131 131 131 131 131
81 82 83 84 86 87 89 89 90 91 93 95 97 98 100 102 104 106 107 109 111 114 115 116 117 117 117 117 118 118 119 119 119 119 120 120 121 121 122 122 123 123 124 124 125 125 126 126 127 127 127 128 128 128 129 129 129 129 130 130 131 132
76 78 79 80 81 82 84 85 86 86 88 89 91 92 94 96 97 99 101 102 104 106 108 110 112 113 114 114 115 116 116 117 117 118 118 119 120 120 121 121 122 122 123 123 124 124 124 125 125 126 126 126 127 127 127 127 128 129 129 130 131 133
72 73 74 76 77 79 80 81 82 83 84 85 87 88 90 91 92 94 95 97 98 100 101 103 105 107 109 110 112 113 114 115 116 116 117 118 118 119 119 119 120 120 121 121 122 122 122 123 123 123 124 124 124 125 125 126 127 128 130 131 132 133
68 69 70 72 74 75 77 78 80 81 82 83 84 85 86 87 88 89 90 92 93 95 96 98 100 102 104 105 107 109 110 112 113 113 114 115 115 115 116 116 117 117 118 119 120 120 120 120 121 121 122 122 123 124 125 127 128 129 130 131 132 132
66 67 68 69 71 72 74 76 77 78 80 81 83 84 85 86 87 88 88 89 90 91 92 93 95 97 99 101 103 104 106 108 109 110 110 111 112 112 113 114 115 116 117 117 117 118 118 119 120 121 122 122 123 124 126 127 128 129 129 130 130 129
66 66 67 68 69 71 73 74 76 77 78 80 81 83 84 86 87 89 90 91 91 91 92 92 93 94 96 98 100 101 103 105 106 107 108 109 110 111 112 113 114 115 116 116 117 118 118 119 120 122 122 123 124 125 126 127 127 127 127 126 125 124
65 66 67 68 69 70 72 73 75 76 77 78 80 81 83 84 86 88 90 91 93 94 95 96 97 98 99 99 100 101 102 103 104 106 107 108 109 110 111 112 114 115 116 117 118 119 120 121 122 123 123 124 124 124 124 124 123 122 121 120 119 119
65 66 67 68 69 70 71 72 74 75 76 77 78 79 80 81 83 84 86 88 90 92 94 96 99 100 102 103 104 105 106 106 107 108 109 110 111 112 113 114 115 117 118 118 119 119 120 120 121 121 121 120 119 119 118 117 117 116 115 115 115 115
65 66 66 67 68 69 70 71 72 73 74 75 76 77 77 78 79 80 82 84 85 87 89 91 93 95 97 99 101 102 104 105 106 107 108 109 110 111 112 113 113 114 115 115 115 115 115 115 114 114 113 112 112 111 111 111 112 112 112 112 113 113
65 66 67 68 68 69 70 71 72 73 74 75 75 76 77 77 78 79 80 82 83 84 86 87 89 90 92 93 94 96 97 99 100 101 102 103 104 105 105 106 106 107 107 107 107 107 107 106 106 106 106 107 107 108 108 109 109 109 109 109 109 109
64 65 66 67 68 69 70 71 72 73 73 74 75 75 76 76 77 78 79 80 81 82 83 85 86 87 88 89 90 91 92 93 94 94 95 96 97 97 98 98 98 99 99 100 100 101 102 102 103 104 104 105 106 106 106 106 105 105 105 106 106 107
64 65 66 67 68 69 70 71 72 72 73 74 74 75 75 76 76 77 77 78 79 80 81 82 82 83 84 85 86 86 87 88 89 89 90 91 91 92 92 93 94 95 96 98 99 100 102 102 102 102 102 102 102 102 101 101 102 103 104 105 106 108
Wind_Direction
250 250 251 251 251 252 253 254 255 256 257 257 257 258 258 259 260 261 262 263 264 265 267 269 270 272 274 275 277 278 279 280 280 280 280 280 281 281 281 281 283 284 286 286 287 287 288 289 290 292 293 295 296 296 297 297 297 297 298 299 300 301
251 251 251 252 252 252 252 253 254 255 256 257 257 257 258 259 260 261 262 263 264 265 266 268 269 271 272 274 276 277 277 278 279 279 279 280 280 280 281 282 284 285 285 286 287 287 288 289 290 291 293 294 294 295 295 296 296 297 298 299 300 301
250 250 251 252 252 253 253 253 253 254 255 256 257 257 258 258 259 260 261 263 264 266 266 267 269 270 272 274 275 275 276 277 278 278 279 279 279 280 281 282 283 284 284 285 286 288 289 289 290 291 292 293 293 294 295 295 296 297 297 299 300 301
249 249 250 251 252 253 253 253 253 254 255 255 256 257 258 259 259 260 262 263 265 266 267 268 269 270 271 273 274 274 275 276 277 278 278 279 279 279 280 281 282 283 284 285 287 288 289 290 290 291 291 292 293 294 295 295 296 297 297 299 300 301
248 249 249 250 251 252 253 253 254 254 255 255 256 257 258 259 260 261 262 263 265 266 267 268 269 270 271 272 273 273 274 275 277 277 278 278 278 279 279 280 281 282 284 285 286 288 289 289 290 290 291 292 293 294 294 295 296 297 298 299 301 302
249 249 249 250 250 251 252 253 254 254 255 256 256 257 257 258 259 260 262 263 265 266 267 268 269 270 270 271 272 273 274 275 276 277 277 278 278 278 279 280 281 282 283 285 286 287 288 289 289 290 291 292 292 293 294 295 296 298 299 300 301 302
252 251 250 250 251 252 253 253 254 255 255 256 256 257 257 258 259 260 261 263 264 265 266 267 268 269 270 271 272 273 274 274 275 276 277 277 278 279 279 280 281 282 283 285 286 287 287 288 289 290 290 291 292 293 294 295 297 298 299 300 301 301
256 254 253 252 252 252 253 253 254 255 256 256 257 257 257 258 259 260 261 262 264 265 266 267 268 269 270 271 272 273 274 274 275 275 277 277 278 279 280 281 282 283 284 285 285 286 287 288 288 289 290 291 292 293 295 296 298 298 299 300 300 300
257 257 256 255 253 253 253 253 253 254 255 256 257 258 258 259 259 260 261 262 263 264 265 266 267 269 269 271 272 273 273 274 274 275 276 277 278 279 280 281 282 283 284 284 285 286 287 288 289 290 291 292 293 294 296 297 297 298 299 299 299 300
257 258 257 257 256 255 254 254 254 254 255 255 257 258 259 259 260 261 262 262 263 264 265 266 267 268 269 270 271 272 272 273 274 275 276 277 278 279 280 281 282 283 284 284 286 287 287 288 289 291 292 293 294 295 295 296 297 297 298 298 298 299
258 258 258 258 257 256 255 255 255 255 255 255 256 257 258 259 260 261 262 263 263 264 264 265 266 267 268 269 270 271 272 273 274 275 276 277 278 279 280 281 282 283 284 285 286 287 288 289 290 291 292 292 293 294 295 295 296 296 296 297 298 299
259 259 259 258 258 257 257 256 256 256 256 256 256 257 257 258 259 261 262 262 263 264 264 265 266 267 268 269 270 271 272 273 274 275 276 277 278 279 280 281 282 283 284 286 287 288 289 290 291 291 291 292 293 293 294 294 294 294 295 296 298 299
258 259 259 259 259 258 258 258 258 257 257 257 257 257 257 258 258 259 260 261 263 263 264 265 265 266 267 268 269 270 271 273 274 275 276 277 278 279 280 282 283 284 285 286 287 288 289 290 290 291 291 291 291 292 292 292 293 294 295 296 297 298
257 258 259 259 260 260 259 259 259 259 258 258 257 257 257 258 258 259 260 261 262 263 263 264 265 266 267 268 269 270 271 272 273 274 276 277 278 279 281 282 283 284 286 287 288 288 289 289 289 289 289 289 290 290 291 292 293 294 295 296 297 298
256 258 259 260 260 260 260 259 259 259 259 259 259 258 258 258 258 259 259 260 261 262 263 264 264 265 266 268 268 269 271 272 273 274 275 277 278 279 281 282 283 284 285 286 286 287 287 287 287 287 288 288 289 290 291 292 293 294 295 296 297 297
255 257 259 260 260 260 260 259 259 259 260 260 260 260 259 259 259 259 259 260 260 261 262 263 264 265 266 267 268 269 270 272 273 274 275 276 277 279 280 281 282 283 283 284 284 284 285 285 286 286 287 288 289 290 291 292 293 294 295 295 296 297
255 256 257 259 260 260 260 260 260 260 260 259 259 260 260 260 259 259 259 260 260 261 261 262 263 264 265 266 268 269 270 271 272 273 274 275 277 278 279 280 281 281 282 282 282 283 283 284 284 285 286 287 289 290 291 292 293 294 294 295 295 296
256 256 256 257 258 259 260 260 260 260 260 259 259 259 259 259 259 259 259 260 260 261 262 262 263 264 265 266 267 268 269 270 271 273 274 275 276 277 278 279 279 280 280 281 281 281 282 283 284 285 286 287 288 289 290 292 292 293 294 294 295 295
258 257 257 257 257 257 258 259 260 260 260 259 259 259 259 259 259 259 259 260 260 261 262 263 264 265 266 267 268 268 269 270 271 272 273 274 275 276 277 277 278 278 279 279 280 281 282 283 284 285 286 287 288 289 290 291 292 293 293 294 294 294
259 258 257 257 257 257 257 258 258 259 259 259 259 259 259 259 259 259 259 260 260 261 261 262 263 264 265 266 267 268 269 270 270 271 272 273 274 274 275 276 276 277 278 279 280 281 282 283 284 285 286 287 288 289 290 291 291 292 292 293 294 294
259 259 258 257 257 257 257 257 257 257 258 258 258 258 258 258 258 258 259 259 260 260 260 261 262 263 264 265 266 267 268 268 269 270 271 272 272 273 274 275 276 277 278 279 280 281 282 283 284 285 286 287 288 289 289 290 291 291 292 293 293 293
259 259 258 257 257 257 257 257 256 256 256 256 256 256 256 257 257 258 259 259 259 260 260 261 261 262 263 264 265 266 267 268 269 270 270 271 272 273 274 275 276 277 278 279 280 281 282 283 284 285 286 287 287 288 289 290 290 291 291 292 292 293
259 259 258 258 257 257 256 256 256 256 255 255 255 255 255 256 257 258 258 259 259 260 260 261 261 262 263 263 264 265 266 267 268 270 271 272 273 274 275 275 276 277 278 279 280 281 282 283 284 285 285 286 287 288 289 289 290 290 291 291 292 293
260 260 260 259 259 258 257 256 256 255 255 254 254 254 255 255 256 256 257 258 259 260 260 261 262 262 263 264 265 265 266 267 269 270 271 272 273 274 275 276 277 278 279 279 280 281 282 283 284 284 285 286 287 288 288 289 289 290 291 291 292 293
262 261 261 260 260 260 259 258 257 256 256 255 255 255 255 256 256 256 257 257 258 259 260 261 262 263 264 264 265 266 267 268 269 270 271 272 273 274 275 276 277 278 278 279 280 281 282 283 284 285 285 286 287 288 288 288 289 290 290 291 292 293
263 262 261 261 261 261 260 260 259 258 257 257 256 256 256 256 257 257 258 258 259 259 260 261 262 263 264 265 266 267 268 268 269 270 271 272 273 274 275 276 277 278 278 279 280 281 282 283 284 285 286 286 287 287 288 288 289 290 290 291 291 292
264 263 263 262 262 261 261 261 261 260 260 259 259 258 258 258 258 258 259 259 260 260 261 262 262 263 264 265 266 267 268 269 270 271 272 273 273 274 275 276 277 278 279 280 280 281 282 283 284 285 285 286 286 286 287 288 288 289 289 290 290 291
266 265 264 263 262 262 262 261 261 261 261 261 260 260 260 260 260 260 260 261 261 261 262 263 263 264 265 266 267 268 269 270 270 271 272 273 274 274 275 276 277 278 279 279 280 281 282 283 283 284 284 285 285 286 287 287 287 288 288 289 290 290
265 264 264 263 263 262 262 262 262 261 261 261 261 261 261 262 262 262 262 262 262 263 263 264 264 265 266 267 268 269 269 270 271 272 273 273 274 275 276 276 277 278 279 279 280 281 282 282 283 283 284 284 284 285 286 286 286 287 288 289 290 291
265 264 263 263 263 263 262 262 262 262 262 261 261 261 261 261 261 262 263 263 264 264 264 265 265 266 266 267 268 269 270 271 272 272 273 274 274 275 276 277 277 278 279 279 280 280 281 281 282 282 282 283 284 284 285 286 286 288 289 290 290 291
266 265 264 263 262 262 262 262 262 261 261 261 261 261 260 260 260 261 261 262 263 264 265 265 266 267 267 268 268 269 270 271 271 272 273 273 274 275 276 276 277 277 278 279 279 279 280 280 280 281 282 282 283 284 285 286 287 288 289 290 291 292
267 266 265 264 263 262 262 261 261 261 260 260 260 260 260 260 260 261 261 261 262 263 263 264 265 266 267 267 268 268 269 270 270 271 272 272 273 274 275 275 276 276 277 277 278 278 279 280 280 281 282 283 284 285 286 287 288 289 290 291 292 292
269 268 267 266 265 264 263 262 262 261 261 260 260 260 260 260 261 261 261 262 262 262 263 263 264 265 265 266 266 267 267 268 269 269 270 271 272 272 273 274 274 275 276 277 277 278 279 280 281 282 283 284 285 286 286 287 288 289 290 291 292 293
271 270 269 268 266 265 264 264 263 263 262 262 262 262 262 262 262 262 263 263 263 263 264 264 264 265 265 265 266 266 267 268 268 269 270 270 271 272 273 274 275 275 276 277 278 279 280 281 282 283 284 285 286 286 287 288 289 290 291 292 292 293
273 272 271 269 267 266 265 264 263 263 263 263 263 264 264 264 264 265 265 265 265 265 265 266 266 266 266 267 268 268 269 269 270 271 272 272 273 274 274 275 276 277 278 279 280 281 281 282 283 284 285 286 287 288 288 289 290 291 291 292 292 292
273 272 272 271 270 268 267 266 265 264 264 264 264 265 265 265 266 266 267 267 267 267 267 268 268 269 269 270 270 271 271 272 272 273 274 274 275 276 277 277 278 279 280 281 282 282 283 284 284 285 286 287 287 288 289 290 290 291 291 292 292 293
272 272 271 271 270 269 269 268 268 268 267 267 267 267 267 267 267 268 268 268 269 269 270 270 271 271 272 272 273 273 274 274 275 276 276 277 278 278 279 280 280 281 282 282 283 283 284 284 285 286 287 288 289 289 290 291 291 291 292 292 293 293
273 273 272 271 270 269 269 269 269 269 270 270 270 270 270 270 271 271 271 272 272 272 273 273 273 274 274 275 275 276 276 277 277 278 278 279 279 280 280 281 281 282 283 283 284 284 285 286 286 287 288 289 290 290 291 291 292 292 293 293 293 294
Height
10766 10768 10769 10770 10772 10772 10773 10773 10775 10776 10777 10778 10779 10778 10778 10778 10778 10779 10778 10778 10777 10776 10776 10775 10775 10774 10773 10772 10771 10770 10769 10767 10764 10762 10760 10758 10756 10754 10752 10750 10748 10745 10742 10740 10737 10735 10731 10728 10726 10723 10720 10717 10714 10710 10707 10703 10699 10695 10691 10687 10683 10678
10758 10759 10760 10762 10763 10764 10765 10766 10767 10768 10769 10770 10770 10770 10770 10770 10770 10770 10770 10770 10769 10769 10768 10768 10767 10766 10766 10765 10764 10762 10761 10759 10756 10754 10751 10749 10748 10746 10743 10742 10740 10737 10734 10731 10729 10726 10723 10720 10717 10715 10712 10708 10705 10701 10697 10694 10689 10685 10681 10677 10673 10669
10750 10751 10752 10753 10754 10756 10757 10758 10758 10759 10760 10761 10762 10761 10761 10761 10761 10760 10761 10761 10761 10761 10760 10760 10760 10759 10758 10757 10756 10754 10753 10750 10748 10745 10742 10741 10740 10738 10735 10733 10730 10728 10725 10722 10719 10717 10714 10711 10709 10706 10703 10699 10696 10692 10688 10684 10680 10676 10672 10668 10663 10659
10741 10742 10744 10745 10745 10746 10748 10749 10750 10751 10752 10753 10753 10753 10753 10752 10751 10751 10752 10753 10753 10753 10752 10751 10752 10751 10750 10749 10748 10746 10744 10742 10739 10737 10734 10733 10732 10730 10727 10724 10720 10718 10716 10712 10710 10707 10704 10702 10699 10696 10693 10690 10686 10682 10678 10674 10670 10666 10662 10658 10653 10648
10732 10733 10734 10735 10737 10738 10739 10741 10742 10742 10743 10743 10744 10745 10744 10743 10743 10743 10743 10744 10744 10743 10743 10743 10742 10742 10741 10740 10739 10737 10735 10734 10731 10729 10727 10724 10723 10720 10718 10715 10710 10708 10706 10702 10700 10697 10695 10692 10689 10686 10683 10679 10676 10672 10668 10665 10661 10657 10652 10647 10643 10637
10724 10724 10726 10726 10728 10729 10730 10732 10732 10733 10733 10734 10735 10735 10735 10735 10734 10734 10735 10735 10735 10734 10734 10733 10733 10732 10731 10730 10729 10728 10726 10725 10723 10721 10719 10716 10713 10710 10708 10705 10701 10698 10696 10693 10690 10688 10685 10682 10679 10676 10673 10669 10666 10662 10659 10655 10651 10647 10642 10637 10632 10626
10714 10716 10718 10718 10719 10720 10721 10722 10723 10723 10723 10724 10725 10725 10725 10726 10726 10726 10726 10726 10726 10726 10725 10724 10723 10722 10721 10720 10720 10719 10717 10716 10714 10712 10710 10707 10704 10700 10697 10695 10692 10689 10686 10683 10681 10678 10675 10672 10669 10665 10662 10659 10656 10652 10649 10645 10641 10636 10631 10626 10620 10615
10703 10706 10709 10710 10711 10711 10712 10712 10713 10713 10713 10714 10715 10716 10716 10717 10717 10717 10717 10717 10717 10717 10715 10715 10713 10712 10711 10711 10710 10709 10707 10706 10705 10702 10699 10696 10694 10691 10687 10685 10682 10680 10677 10674 10671 10668 10665 10662 10658 10655 10652 10649 10646 10642 10638 10635 10630 10625 10620 10614 10609 10603
10691 10695 10698 10700 10701 10702 10702 10702 10703 10704 10704 10704 10705 10706 10707 10707 10708 10708 10708 10708 10708 10707 10706 10704 10703 10703 10702 10701 10700 10699 10697 10696 10694 10692 10689 10686 10683 10680 10677 10674 10672 10670 10667 10664 10661 10658 10655 10651 10648 10645 10642 10639 10635 10632 10628 10624 10619 10614 10609 10603 10598 10592
10680 10683 10685 10688 10690 10691 10692 10693 10693 10694 10695 10696 10696 10697 10697 10697 10698 10698 10698 10698 10697 10696 10695 10694 10694 10693 10692 10691 10690 10688 10687 10685 10683 10681 10679 10676 10672 10670 10668 10665 10662 10660 10657 10654 10651 10648 10644 10641 10638 10635 10632 10628 10625 10621 10617 10613 10608 10603 10597 10592 10587 10582
10669 10671 10673 10676 10678 10680 10682 10683 10684 10685 10686 10687 10688 10688 10688 10687 10687 10687 10687 10687 10686 10685 10685 10685 10684 10683 10682 10681 10679 10678 10676 10674 10672 10670 10669 10666 10663 10660 10658 10655 10653 10650 10647 10644 10641 10638 10634 10631 10628 10625 10621 10618 10614 10610 10606 10601 10596 10591 10587 10582 10577 10572
10657 10658 10660 10662 10665 10668 10671 10672 10674 10675 10676 10677 10677 10678 10678 10677 10677 10676 10675 10675 10675 10674 10674 10674 10673 10672 10671 10670 10669 10667 10666 10664 10661 10659 10657 10655 10652 10650 10648 10645 10643 10640 10637 10634 10631 10628 10624 10621 10617 10614 10610 10607 10603 10599 10594 10590 10585 10581 10576 10572 10567 10561
10645 10646 10647 10649 10652 10656 10659 10661 10663 10665 10665 10665 10666 10666 10667 10667 10667 10666 10664 10664 10663 10662 10663 10662 10662 10661 10660 10659 10658 10656 10655 10653 10650 10648 10646 10644 10642 10640 10638 10635 10633 10630 10627 10624 10620 10617 10613 10609 10606 10602 10599 10595 10592 10587 10583 10579 10575 10571 10566 10562 10556 10551
10634 10634 10635 10638 10640 10643 10646 10649 10651 10651 10652 10654 10655 10655 10655 10655 10655 10655 10654 10653 10652 10651 10651 10650 10650 10650 10649 10648 10647 10645 10643 10642 10640 10638 10636 10634 10632 10630 10628 10625 10622 10619 10616 10613 10609 10605 10601 10598 10594 10591 10587 10583 10580 10576 10572 10568 10565 10561 10556 10551 10546 10540
10624 10624 10625 10626 10628 10631 10633 10635 10637 10637 10640 10642 10643 10643 10643 10643 10643 10643 10642 10641 10640 10640 10639 10639 10639 10639 10638 10637 10636 10634 10633 10631 10630 10628 10626 10624 10622 10620 10617 10614 10611 10608 10605 10601 10597 10593 10590 10586 10583 10579 10575 10572 10568 10565 10562 10558 10554 10550 10545 10540 10534 10528
10614 10615 10615 10614 10615 10618 10620 10621 10623 10625 10627 10629 10630 10630 10631 10631 10631 10631 10630 10629 10628 10628 10628 10627 10628 10627 10627 10626 10624 10623 10622 10621 10620 10618 10615 10614 10611 10609 10606 10603 10600 10597 10593 10589 10585 10582 10578 10574 10570 10567 10563 10560 10558 10555 10552 10548 10544 10540 10534 10528 10523 10516
10605 10606 10606 10604 10603 10605 10606 10609 10610 10612 10614 10616 10617 10618 10618 10618 10619 10618 10617 10616 10616 10616 10616 10616 10616 10616 10615 10614 10613 10613 10612 10610 10608 10606 10604 10603 10601 10598 10595 10591 10588 10585 10581 10577 10574 10570 10566 10562 10559 10556 10553 10550 10547 10544 10541 10538 10533 10528 10522 10516 10510 10504
10592 10594 10595 10594 10593 10592 10593 10595 10598 10599 10601 10603 10604 10605 10605 10606 10606 10605 10604 10603 10603 10603 10604 10604 10604 10604 10603 10603 10603 10602 10600 10598 10597 10595 10593 10592 10589 10586 10583 10579 10576 10573 10569 10565 10561 10557 10554 10551 10548 10545 10542 10539 10536 10533 10530 10526 10521 10516 10509 10503 10497 10491
10576 10579 10581 10581 10581 10580 10581 10583 10585 10586 10588 10589 10591 10592 10593 10593 10592 10591 10590 10590 10591 10592 10593 10593 10593 10592 10592 10592 10591 10589 10588 10586 10585 10583 10581 10579 10577 10573 10570 10567 10564 10560 10557 10553 10550 10546 10544 10540 10537 10534 10530 10527 10525 10522 10518 10514 10508 10502 10496 10490 10484 10479
10561 10564 10567 10567 10567 10568 10570 10572 10573 10573 10574 10575 10577 10578 10580 10580 10578 10577 10577 10578 10580 10581 10582 10581 10581 10581 10580 10579 10578 10576 10575 10574 10572 10570 10568 10566 10564 10560 10557 10554 10552 10549 10546 10542 10539 10535 10532 10528 10525 10522 10519 10516 10513 10510 10506 10501 10495 10489 10483 10477 10472 10466
10547 10549 10552 10553 10553 10556 10558 10560 10561 10562 10562 10562 10563 10565 10566 10564 10563 10563 10565 10567 10568 10568 10569 10569 10569 10568 10567 10566 10565 10564 10562 10561 10559 10557 10555 10553 10551 10548 10545 10543 10540 10537 10534 10530 10527 10523 10520 10516 10513 10510 10507 10504 10500 10497 10493 10487 10481 10475 10470 10464 10459 10453
10532 10535 10537 10538 10540 10543 10544 10546 10548 10549 10549 10549 10550 10551 10550 10549 10550 10552 10553 10554 10554 10555 10556 10556 10555 10555 10554 10553 10552 10550 10549 10547 10545 10544 10543 10541 10539 10536 10534 10531 10528 10525 10522 10518 10515 10511 10507 10503 10500 10497 10495 10491 10488 10484 10479 10473 10468 10462 10457 10452 10446 10440
10519 10520 10522 10524 10527 10529 10531 10533 10534 10535 10536 10537 10537 10537 10537 10538 10539 10539 10540 10541 10542 10543 10543 10543 10542 10541 10540 10539 10539 10537 10536 10534 10533 10532 10531 10529 10526 10524 10522 10519 10516 10513 10510 10506 10503 10499 10494 10490 10487 10485 10482 10479 10475 10471 10466 10460 10454 10449 10444 10439 10433 10428
10507 10508 10510 10511 10513 10516 10518 10520 10521 10522 10523 10524 10524 10525 10526 10526 10527 10527 10527 10528 10529 10529 10529 10529 10529 10528 10527 10527 10526 10525 10523 10522 10521 10520 10518 10516 10514 10511 10509 10507 10504 10501 10497 10493 10490 10485 10481 10477 10474 10472 10469 10466 10463 10458 10452 10446 10441 10436 10431 10426 10420 10416
10496 10498 10498 10499 10500 10502 10504 10506 10508 10509 10510 10511 10511 10512 10513 10513 10514 10514 10514 10515 10515 10515 10515 10516 10515 10515 10515 10514 10513 10512 10511 10510 10509 10508 10506 10504 10501 10499 10496 10494 10490 10487 10484 10480 10476 10473 10469 10465 10462 10459 10457 10454 10450 10445 10438 10432 10427 10423 10418 10413 10408 10404
10485 10486 10487 10488 10489 10490 10492 10494 10495 10496 10497 10498 10499 10499 10500 10500 10501 10502 10502 10502 10502 10502 10502 10503 10503 10503 10502 10501 10501 10500 10499 10498 10496 10495 10493 10491 10489 10486 10483 10480 10477 10473 10471 10467 10464 10460 10457 10453 10449 10446 10443 10441 10436 10430 10424 10419 10415 10410 10405 10400 10396 10391
10473 10474 10475 10477 10478 10479 10480 10481 10483 10484 10485 10485 10486 10487 10488 10488 10489 10490 10490 10490 10490 10490 10490 10490 10490 10490 10489 10488 10488 10487 10486 10485 10483 10482 10480 10478 10475 10473 10469 10466 10464 10461 10458 10455 10451 10447 10444 10441 10438 10434 10430 10426 10421 10415 10410 10407 10402 10396 10391 10387 10382 10377
10462 10462 10464 10465 10465 10467 10468 10469 10470 10471 10472 10473 10474 10475 10476 10476 10477 10477 10477 10478 10478 10478 10478 10478 10477 10477 10476 10476 10475 10474 10473 10472 10470 10469 10467 10465 10462 10459 10456 10454 10451 10448 10445 10442 10438 10435 10432 10429 10425 10421 10416 10412 10406 10401 10398 10394 10388 10382 10378 10374 10368 10363
10451 10451 10452 10452 10454 10455 10456 10457 10458 10459 10460 10461 10462 10463 10463 10464 10464 10465 10465 10465 10465 10465 10466 10466 10465 10465 10464 10463 10462 10461 10460 10458 10457 10456 10454 10451 10448 10446 10444 10441 10438 10435 10431 10428 10425 10422 10419 10416 10412 10407 10403 10398 10393 10389 10385 10379 10374 10369 10364 10359 10354 10349
10441 10441 10442 10443 10443 10444 10445 10446 10447 10448 10449 10450 10450 10451 10452 10452 10452 10452 10452 10453 10453 10453 10454 10454 10453 10453 10452 10451 10450 10449 10448 10446 10444 10443 10440 10437 10435 10433 10431 10428 10425 10421 10417 10414 10412 10409 10406 10402 10398 10393 10389 10385 10381 10376 10371 10365 10361 10356 10350 10345 10341 10336
10431 10432 10433 10434 10434 10435 10435 10435 10436 10437 10437 10438 10438 10439 10440 10440 10440 10441 10441 10441 10442 10442 10442 10442 10441 10441 10440 10439 10438 10437 10435 10433 10432 10429 10427 10424 10422 10420 10418 10414 10411 10407 10403 10400 10398 10395 10392 10389 10384 10379 10376 10373 10368 10363 10358 10352 10348 10343 10337 10332 10328 10323
10421 10422 10423 10424 10425 10425 10425 10425 10426 10426 10426 10426 10427 10427 10427 10428 10428 10429 10429 10430 10430 10430 10430 10430 10429 10428 10428 10426 10425 10424 10422 10420 10418 10416 10414 10411 10409 10407 10405 10401 10397 10393 10390 10387 10384 10381 10378 10375 10369 10365 10363 10359 10354 10350 10345 10339 10335 10330 10326 10321 10316 10310
10412 10413 10414 10415 10415 10415 10415 10415 10415 10415 10415 10415 10415 10415 10416 10416 10416 10416 10417 10417 10417 10418 10418 10417 10416 10415 10414 10413 10411 10410 10408 10406 10404 10403 10401 10398 10396 10394 10392 10388 10384 10380 10376 10373 10370 10367 10364 10361 10355 10352 10349 10346 10341 10337 10332 10327 10322 10318 10314 10310 10304 10297
10403 10403 10404 10405 10405 10405 10405 10404 10404 10404 10404 10403 10403 10404 10404 10404 10404 10405 10405 10405 10405 10405 10404 10403 10402 10401 10399 10398 10397 10395 10394 10392 10391 10389 10387 10385 10383 10381 10378 10374 10370 10367 10363 10360 10357 10354 10351 10347 10343 10339 10336 10332 10328 10324 10319 10314 10310 10307 10302 10297 10291 10285
10392 10393 10393 10393 10394 10394 10394 10393 10393 10393 10392 10392 10392 10392 10392 10393 10393 10393 10393 10393 10393 10392 10391 10390 10388 10387 10385 10384 10383 10381 10380 10379 10377 10375 10374 10372 10370 10367 10364 10361 10358 10354 10351 10348 10344 10341 10338 10334 10330 10327 10323 10319 10315 10311 10306 10302 10298 10294 10290 10285 10278 10273
10383 10383 10382 10382 10383 10383 10383 10383 10383 10382 10381 10382 10382 10382 10382 10382 10382 10382 10381 10381 10380 10379 10378 10376 10375 10374 10373 10372 10370 10369 10368 10366 10364 10363 10361 10358 10356 10353 10351 10348 10345 10341 10338 10335 10331 10328 10324 10321 10317 10314 10310 10306 10302 10298 10294 10290 10286 10281 10276 10271 10265 10260
10373 10373 10373 10373 10373 10372 10372 10372 10371 10371 10371 10371 10371 10371 10371 10371 10371 10371 10370 10369 10368 10367 10366 10364 10363 10362 10361 10360 10359 10357 10356 10354 10352 10350 10347 10345 10342 10340 10337 10334 10331 10328 10324 10321 10318 10314 10310 10307 10305 10302 10298 10294 10289 10285 10280 10277 10272 10267 10262 10258 10252 10246
10363 10363 10363 10363 10362 10362 10362 10361 10361 10361 10361 10360 10360 10360 10360 10359 10359 10359 10358 10357 10356 10355 10354 10353 10352 10351 10350 10349 10347 10345 10343 10341 10339 10337 10335 10332 10330 10327 10324 10321 10318 10315 10311 10308 10304 10299 10296 10294 10292 10289 10286 10281 10276 10271 10268 10264 10259 10253 10249 10244 10238 10232